This is the latest recevied weather packets stored in our database for station/object KC5DAQ-25. If no packets are shown the sender has not sent any weather packets the latest 10 day(s).
| Time | Temp. | Humidity | Pressure | Rain* | Wind** | Luminosity | Snow |
|---|---|---|---|---|---|---|---|
| 1777850224 | 24.44° C | 55% | 1009.2 hPa | 0 mm | - | 56 W/m² | - |
| 1777850162 | 24.44° C | 55% | 1009.3 hPa | 0 mm | - | 65 W/m² | - |
| 1777850103 | 24.44° C | 56% | 1009.3 hPa | 0 mm | - | 65 W/m² | - |
| 1777850043 | 24.44° C | 52% | 1009.3 hPa | 0 mm | - | 65 W/m² | - |
| 1777849983 | 24.44° C | 52% | 1009.3 hPa | 0 mm | - | 65 W/m² | - |
| 1777849922 | 24.44° C | 60% | 1009.4 hPa | 0 mm | - | 72 W/m² | - |
| 1777849863 | 24.44° C | 54% | 1009.3 hPa | 0 mm | - | 72 W/m² | - |
| 1777849803 | 24.44° C | 54% | 1009.4 hPa | 0 mm | - | 72 W/m² | - |
| 1777849742 | 24.44° C | 56% | 1009.4 hPa | 0 mm | - | 72 W/m² | - |
| 1777849688 | 24.44° C | 56% | 1009.4 hPa | 0 mm | - | 69 W/m² | - |
| 1777849624 | 24.44° C | 56% | 1009.3 hPa | 0 mm | - | 69 W/m² | - |
| 1777849562 | 24.44° C | 56% | 1009.4 hPa | 0 mm | - | 62 W/m² | - |
| 1777849502 | 24.44° C | 55% | 1009.3 hPa | 0 mm | - | 65 W/m² | - |
| 1777849442 | 24.44° C | 53% | 1009.3 hPa | 0 mm | - | 65 W/m² | - |
| 1777849384 | 24.44° C | 57% | 1009.4 hPa | 0 mm | - | 69 W/m² | - |
| 1777849324 | 24.44° C | 57% | 1009.4 hPa | 0 mm | - | 65 W/m² | - |
| 1777849263 | 24.44° C | 57% | 1009.3 hPa | 0 mm | - | 79 W/m² | - |
| 1777849204 | 24.44° C | 56% | 1009.3 hPa | 0 mm | - | 90 W/m² | - |
| 1777849142 | 24.44° C | 56% | 1009.2 hPa | 0 mm | - | 113 W/m² | - |
| 1777849082 | 24.44° C | 56% | 1009.3 hPa | 0 mm | - | 274 W/m² | - |
| 1777849022 | 24.44° C | 56% | 1009.2 hPa | 0 mm | - | 274 W/m² | - |
| 1777848964 | 24.44° C | 56% | 1009.3 hPa | 0 mm | - | 274 W/m² | - |
| 1777848905 | 24.44° C | 53% | 1009.3 hPa | 0 mm | - | 274 W/m² | - |
| 1777848842 | 24.44° C | 53% | 1009.3 hPa | 0 mm | - | 274 W/m² | - |
| 1777848783 | 24.44° C | 54% | 1009.4 hPa | 0 mm | - | 274 W/m² | - |
* Rain latest hour (hover to see other rain measurements)
** Current wind speed in m/s (hover to see current wind gust speed)